Regional Weather Roundup
Issued by NWS Wakefield, VA

Home | Current Version | Previous Version | Graphics & Text | Print | Product List | Glossary On
Versions: 1 2 3 4 5 6 7 8 9 10 11 12 13 14 15 16 17 18 19 20 21 22 23 24 25 26 27
000
ASUS41 KAKQ 240315
RWRAKQ

REGIONAL WEATHER ROUNDUP
NATIONAL WEATHER SERVICE WAKEFIELD VA
1000 PM EST MON JAN 23 2017

Note: "fair" indicates few or no clouds below 12,000 feet with no
significant weather and/or obstructions to visibility. * = Denotes
station may not report precipitation (e.g., rain,snow,etc.),
thunder or fog.

VAZ042-051-052>054-056-240400-
NORTHERN VIRGINIA

CITY           SKY/WX    TMP DP  RH WIND       PRES   REMARKS
WASH NATIONAL  LGT RAIN  40  38  93 N17       29.47F FOG
DULLES         LGT RAIN  37  35  92 N10       29.50F FOG
FORT BELVOIR   LGT RAIN  39  36  91 N6        29.47S
QUANTICO       LGT RAIN  40  40 100 N16G24    29.48F FOG
FREDERICKSBRG* DRIZZLE   39  39 100 N10       29.47R
STAFFORD*      RAIN      38  38 100 N13       29.51S
WARRENTON      DRIZZLE   38  35  87 N16       29.49S
CULPEPER*      CLOUDY    38  37  95 N10       29.51S
MANASSAS*      FOG      N/A N/A N/A N16       29.51S VSB 1
LEESBURG*      DRIZZLE   37  37 100 N12G20    29.52F
WINCHESTER     LGT RAIN  32  32 100 N5        29.54F
FRONT ROYAL*   CLOUDY    34  34 100 N6        29.54S
LURAY*         LGT RAIN  34  34 100 NE3       29.54S
$$

VAZ048-049-060>072-079>083-240400-
CENTRAL AND SOUTH CENTRAL VIRGINIA

CITY           SKY/WX    TMP DP  RH WIND       PRES   REMARKS
RICHMOND       LGT RAIN  41  40  96 N16       29.42R FOG
CHESTERFIELD*  CLOUDY    41  25  52 N15G21    29.44R
PETERSBURG*    NOT AVBL
HANOVER        LGT RAIN  40 N/A N/A N9G18     29.45R
TAPPAHANNOCK*  DRIZZLE   42  42 100 N12       29.41R
QUINTON*       CLOUDY    42  42 100 NW8       29.39R FOG
CHARLOTTSVILLE CLOUDY    39  36  89 NW3       29.50R
GORDONSVILLE*  CLOUDY    37  35  94 N13G22    29.49R
ORANGE*        RAIN      37  37 100 NW9       29.51R
LOUISA*        DRIZZLE   41  39  93 N9G20     29.46R
BUMPASS*       CLOUDY    38  38 100 N9        29.46R
FARMVILLE*     DRIZZLE   40  39  97 N7        29.47R
CREWE*         CLOUDY    38  38 100 NW8       29.45R
FORT PICKETT*  CLOUDY    39  36  87 N9G17     29.44R
CHASE CITY*    CLOUDY    39  38  94 NW7G16    29.47R
CLARKSVILLE*   CLOUDY    41  39  93 N10       29.46R
SOUTH HILL*    CLOUDY    40  39  96 NW8G18    29.50R
LAWRENCEVILLE* CLOUDY    42  40  95 NW10G17   29.42R
EMPORIA*       LGT SNOW  43  43 100 NW10      29.41R
$$

VAZ088>098-240400-
SOUTHEAST VIRGINIA

CITY           SKY/WX    TMP DP  RH WIND       PRES   REMARKS
NORFOLK        LGT RAIN  47  45  93 NW9G21    29.30R FOG
VIRGINIA BEACH LGT RAIN  46  44  93 NW13        N/A  FOG
NORFOLK NAVAL  LGT RAIN  47  45  93 N17       29.33R FOG
WEST POINT*    CLOUDY    44  43  97 N7        29.38R
SALUDA*        CLOUDY    43  43 100 N17G24    29.34R
NEWPORT NEWS   CLOUDY    46  44  93 N12G21    29.32R
LANGLEY AFB    CLOUDY    46  46 100 N14       29.31S
FORT EUSTIS    CLOUDY    45  43  93 N13       29.31R
WILLIAMSBURG*  CLOUDY    46  46 100 N8        29.35R
HR EXEC AP*    CLOUDY    48  45  87 N7        29.31R
FRANKLIN*      CLOUDY    46  45  97 NW9       29.36R FOG
US460-WAKEFLD  LGT RAIN  45  44  97 VRB7G17   29.37R FOG
$$

VAZ020-022-025-037-045-240400-
WEST CENTRAL AND SOUTHWEST VIRGINIA

CITY           SKY/WX    TMP DP  RH WIND       PRES   REMARKS
STAUNTON*      LGT RAIN  34  32  94 N7        29.55R
WAYNESBORO*    CLOUDY    33  32  96 N8        29.52R
HOT SPRINGS VA LGT SNOW  25  25 100 NW5       29.44R
LYNCHBURG      CLOUDY    39  35  86 VRB7      29.50R
DANVILLE       CLOUDY    42  39  89 N12       29.50R
SOUTH BOSTON*  CLOUDY    41  39  93 N7        29.49R
MARTINSVILLE   CLOUDY    42  39  89 NE6       29.52R
ROANOKE        CLOUDY    41  36  82 N12       29.54R
BLACKSBURG     CLOUDY    39  37  92 NE3       29.52R
DUBLIN*        CLOUDY    42  39  91 N6        29.50S
MARION*        DRIZZLE   44  42  93 CALM      29.52R
HILLSVILLE*    MIX PCPN  39  39 100 N3        29.46R
RICHLANDS*     RAIN      41  41 100 NW10G17   29.53R
WISE*          RAIN      43  43 100 NW8       29.57R
ABINGDON*      DRIZZLE   47  44  90 NW9       29.55R
$$

MDZ021>025-VAZ099-100-240400-
SOUTHERN MARYLAND AND THE DELMARVA PENINSULA

CITY           SKY/WX    TMP DP  RH WIND       PRES   REMARKS
PATUXENT RIVER LGT RAIN  41  40  96 N20G26    29.37S FOG
BAY BRIDGE APT CLOUDY    39  36  87 N16G25    29.43S
LEONARDTOWN    CLOUDY    37  36  93 N5G18     29.41R
DOVER          CLOUDY    41  41 100 N18       29.37F
GEORGETOWN     CLOUDY    45  44  97 N16G25    29.35F
EASTON         CLOUDY    41  37  87 NE18G26   29.42F
CAMBRIDGE      CLOUDY    41  37  87 N9G20     29.36F
SALISBURY      LGT RAIN  45  43  93 NE22G32   29.31F FOG
OCEAN CITY     LGT RAIN  45  44  97 NE18G26   29.30S FOG
WALLOPS ISLAND CLOUDY    47  46  97 N20G36    29.27F
ACCOMACK*      CLOUDY    48  47  96 NE13G20   29.26S FOG
$$

NCZ012>017-030>032-240400-
NORTH CENTRAL AND EASTERN NORTH CAROLINA

CITY           SKY/WX    TMP DP  RH WIND       PRES   REMARKS
ROANOKE RAPIDS CLOUDY    45  43  93 NW13G18   29.41R
RALEIGH        DRIZZLE   45  41  86 VRB6G16   29.46R
ELIZABETH CITY CLOUDY    50  49  96 NW16      29.30R
AHOSKIE*       DRIZZLE   46  45  97 NW5       29.38R
EDENTON*       CLOUDY    52  49  90 NW14G21   29.34R FOG
CURRITUCK*     CLOUDY    50  50 100 NW7G17    29.31R
KILL DEVIL HLS NOT AVBL
MANTEO         DRIZZLE   52  52  99 NW8       29.28R
CAPE HATTERAS  CLOUDY    54  50  86 W9        29.27R
TARBORO*       NOT AVBL
GOLDSBORO      CLOUDY    51  50  99 NW12      29.38R
WASHINGTON     CLOUDY    50  47  88 NW9         N/A
GREENVILLE     CLOUDY    50  46  87 NW7       29.42R
NEW BERN       MOCLDY    53  51  93 NW7       29.36R
WILMINGTON     MOCLDY    52  51  97 W7        29.39R
$$

VAZ048-240400-
ELSEWHERE

CITY           SKY/WX    TMP DP  RH WIND       PRES   REMARKS
HARRISBURG PA  DRIZZLE   37  35  92 N7        29.56F
BALTIMORE      CLOUDY    39  35  86 N15G24    29.46F
ANNAPOLIS      CLOUDY   N/A N/A N/A N16G24    29.44S
ANDREWS AFB    LGT RAIN  37  36  93 N17       29.43F
PHILADELPHIA   LGT RAIN  39  34  82 NE29G51   29.41F
HENDERSON NC   CLOUDY    38  35  88 N10G20    29.46R
GREENSBORO     CLOUDY    43  41  93 NE8       29.47R
ROCKY MOUNT    CLOUDY    47  44  90 N14       29.41R
$$

VAZ100-240400-
MARINE

STATION/POSITION TIME  TEMP    WIND        PRES    WAVE   SWELL
                       AIR SEA DIR/SP/G            HT/PER HT/PER
                 (UTC) (F)     (DEG/KT/KT) (MB)    (FT/S) (FT/S)
CAPE MAY NJ      0248   43 44   40/ 17/ 35  990.5F
LEWES DE         0248   45 43   50/ 30/ 36  993.0F
OCEAN-CITY-INLET 0248   44 44   40/ 12/ 20  992.4F
WACHAPREAGUE VA  0248   48 49   30/ 23/ 31  990.3R
THOMAS POINT MD  0300   40 40   20/ 27/ 29   N/A
GOOSES REEF MD   0300   40     360/ 21/ 27  996.7    3/ 3
COVE POINT MD    0248   41      20/ 19/ 25  995.7R
SOLOMONS ISLAND  0248   40 42  360/ 13/ 19   N/A
BISHOPS HEAD MD  0248   44 45   20/ 13/ 20  993.3R
PINEY POINT MD   0248           10/ 13/ 15   N/A
POTOMAC MD       0300   42 42  360/ 17/ 23  993.0    2/ 3
CAMBRIDGE MD     0248   42 43   30/ 18/ 22  993.5F
LEWISETTA VA     0248   42 45   10/ 11/ 20  994.1R
RAPPAHANNOCK LGT 0248          340/ 21/ 22  992.0R
STINGRAY PT      0250   43     360/ 21/ 25  992.8R
YORK RVR RNG VA  0248   45     350/ 19/ 21  991.6R
YORKTOWN VA      0248   45 45  320/ 14/ 16  992.7R
JAMESTOWN VA     0300   45 48  330/ 10/ 16   N/A     1
DOMINION TERM VA 0248   47     350/ 14/ 19  992.6R
CHES BAY BRIDGE  0248   45 46  350/ 19/ 22  991.9R
CAPE HENRY VA    0248   45     330/ 17/ 19   N/A
WILLOUBY STN VA  0248   46     340/ 19/ 23  993.1R
S CRANEY ISL VA  0248   47     330/ 10/ 15  992.1R
CAPE HENRY BUOY  0242      47                N/A     7/12   5/12
OFFSHORE WE BUOY 0251      48                N/A    10/11   7/11
64NM E OF VA BCH 0250   53 55  280/ 10/ 12  989.6R  12/11  11/11
DUCK PIER NC     0248   51 46  320/ 11/ 13  990.7R
44100 DUCK FRF   0235      49                N/A    10/11   8/11
44056 DUCK FRF   0230      47                N/A     7/13   5/13
OREGON INLET NC  0242   49 50   CALM  /  3  991.1R
HATTERAS NC      0248   55 57  260/ 11/ 14  990.9R
DIAMOND SHLS NC  0250   61 76  290/ 16/ 19  990.8R   8/11   8/11
CAPE LOOKOUT NC  0200   54     320/ 11/ 14  992.0R
$$




USA.gov is the U.S. government's official web portal to all federal, state and local government web resources and services.